Location: Bandys
(35.4750°N, 81.0830°W)
Time: 14:36:23
(UTC-05:00)

Daily predictions for brighter satellites

Satellite Brightness Start Highest point End
(mag) Time Altitude Azimuth Time Altitude Azimuth Time Altitude Azimuth
GPS 2-05 Rocket1 3.7 18:40:44 10° SW 18:43:40 33° SSE 18:46:32 10° E
Meteor 1-20 Rocket 4.3 18:40:02 10° S 18:45:41 69° E 18:51:27 10° NNE
Cosmos 2034 Rocket 4.5 18:40:59 10° N 18:46:55 39° ENE 18:52:47 10° SE
Envisat 4.5 18:44:24 10° ESE 18:47:28 16° ENE 18:50:33 10° NNE
Cosmos 1812 2.7 18:45:08 10° N 18:49:01 89° W 18:52:52 10° S
MOS 1 4.3 18:43:49 10° SSE 18:49:27 79° ENE 18:55:09 10° N
Cosmos 2263 Rocket 3.5 18:46:40 10° SE 18:50:08 17° E 18:53:37 10° ENE
SKYMED 2 4.5 18:46:39 10° N 18:50:53 53° WNW 18:55:06 10° SSW
Lacrosse 5 4.3 18:47:46 10° WNW 18:51:53 25° WSW 18:55:58 10° S
CENTAUR R/B 3.1 18:50:57 10° SW 18:56:43 58° NW 19:03:21 10° NNE
Cosmos 1975 Rocket 3.9 18:54:21 10° NNE 18:58:17 30° ENE 19:02:13 10° SE
NOAA 12 4.2 18:53:16 10° SSE 18:58:35 87° W 19:03:56 10° NNW
Okean 1 3.6 18:56:52 10° N 19:00:41 44° E 19:04:29 10° SSE
MOS 1-B Rocket 4.3 18:54:50 10° S 19:01:15 75° WSW 19:07:00 10° NNW
Cosmos 1602 4.2 18:58:47 10° SSE 19:02:26 39° E 19:06:04 10° NNE
Cosmos 1269 Rocket 4.0 18:59:17 10° SSW 19:04:33 81° ESE 19:09:51 10° NNE
Meteor 1-4 Rocket 3.5 19:02:14 10° SSE 19:05:10 25° E 19:08:08 10° NE
USA 32 4.0 19:02:36 10° S 19:07:47 68° E 19:12:58 10° N
Thor Agena Rocket 4.1 19:03:34 10° NNE 19:08:09 34° E 19:12:42 10° SSE
Resurs 01 Rocket 3.3 19:15:19 15° ENE 19:15:19 15° ENE 19:17:24 10° NNE
OAO 2 Rocket 3.2 19:11:44 10° W 19:16:44 86° S 19:19:59 21° E
FREGAT/IRIS 2.5 19:14:02 10° SSE 19:16:57 58° ENE 19:19:52 10° N
Cosmos 1513 Rocket 4.5 19:11:32 10° N 19:17:53 87° E 19:24:05 10° S
Cosmos 1378 Rocket 3.8 19:13:28 10° N 19:17:54 73° W 19:22:18 10° S
Cosmos 2227 4.2 19:12:33 10° SSW 19:18:16 82° ESE 19:23:59 10° NNE
Tiangong 2 3.4 19:17:43 10° W 19:20:14 22° SW 19:22:44 10° SSE
Meteor 1-18 Rocket 4.4 19:15:06 10° NNW 19:20:40 76° W 19:26:11 10° S
EO 1 Del DPAF 4.4 19:17:34 10° N 19:21:15 46° WNW 19:24:53 10° SSW
Meteor 2-4 Rocket 4.3 19:17:05 10° NNE 19:22:13 33° ENE 19:27:12 10° SE
Iridium 4 Rocket 3.3 19:19:56 10° N 19:24:36 78° W 19:28:53 10° S
Alouette 2 Rocket 3.6 19:22:15 10° SSE 19:25:38 37° E 19:29:01 10° NNE
Cosmos 1437 Rocket 3.2 19:22:00 10° SSW 19:26:01 69° W 19:30:07 10° N
Cosmos 1782 Rocket 3.7 19:22:14 10° S 19:26:40 77° W 19:31:06 10° N
Cosmos 1536 3.6 19:25:38 10° SSE 19:34:43 - NNE 19:28:49 29° E
CZ-4C R/B 3.9 19:23:20 10° N 19:29:14 26° NE 19:31:56 22° ENE
Meteor 1-19 Rocket 4.2 19:25:30 10° N 19:30:58 58° E 19:36:27 10° SSE
Cosmos 44 Rocket 4.4 19:26:12 10° NW 19:31:05 48° WSW 19:36:01 10° S
Lacrosse 5 rocket 2.9 19:29:16 10° S 19:30:46 17° SSE 19:30:46 17° SSE
CZ-3A R/B 4.5 19:25:57 10° SW 19:32:02 45° SSE 19:49:07 22° E
Cosmos 1331 Rocket 4.4 19:29:52 10° N 19:34:55 42° ENE 19:37:34 25° ESE
Meteor 1-11 Rocket 3.7 19:31:00 10° S 19:36:27 60° E 19:42:03 10° NNE
Tsikada Rocket 4.1 19:35:03 10° S 19:41:28 84° W 19:47:55 10° N
Geosat 4.4 19:40:31 31° ENE 19:42:06 39° ESE 19:46:45 10° S
Cosmos 1943 3.7 19:39:38 10° N 19:44:49 36° ENE 19:45:39 34° E
Gbstr 26 Del rocket 4.1 19:42:16 10° W 19:45:41 33° NW 19:47:48 19° NNE
Cosmos 2251 Rocket 3.4 19:46:37 10° S 19:51:45 61° ESE 19:56:07 14° NNE
Okean 2 Rocket 3.4 19:48:38 10° SSW 19:52:59 64° W 19:57:22 10° N
ERS-2 3.6 19:53:10 10° S 19:56:36 37° W 20:00:04 10° NNW
ARGOS Delta rocket 3.9 19:53:11 10° N 19:57:54 73° WNW 20:02:23 10° SSW
Cosmos 2151 Rocket 3.4 19:58:06 10° S 20:02:34 81° E 20:07:03 10° N
SeaSat 1 2.4 20:04:38 59° ENE 20:04:54 60° ENE 20:09:45 10° NNW
SL-16 R/B 4.5 20:00:48 10° NW 20:05:12 24° W 20:09:35 10° SSW
COSMOS 2455 3.2 20:05:10 10° SW 20:11:07 64° WNW 20:17:07 10° NNE
USA 215 3.4 20:11:43 22° NE 20:16:11 70° NW 20:22:39 10° SW
Meteor 1-23 Rocket 4.2 20:10:45 10° N 20:16:31 64° ENE 20:16:31 64° ENE
SJ-6B 4.3 20:13:37 10° SSW 20:17:04 34° W 20:20:36 10° NNW
Cosmos 2279 Rocket 4.5 20:15:15 10° N 20:19:44 42° NE 20:19:44 42° NE
Cosmos 1603 4.3 20:18:59 10° NNW 20:24:28 54° WSW 20:27:50 23° S
Envisat 3.7 20:21:06 10° S 20:26:01 52° W 20:30:59 10° NNW
Cosmos 2263 Rocket 2.8 20:28:05 10° SW 20:33:31 53° WNW 20:37:36 18° N
ATLAS CENTAUR R/B 3.5 20:33:12 10° NNW 20:34:39 21° NNW 20:34:39 21° NNW
Cosmos 1634 Rocket 4.4 20:36:48 10° NNW 20:42:50 59° W 20:47:12 19° SSW
USA 267 4.4 20:48:24 30° NNE 20:48:24 30° NNE 20:52:57 10° NNW
Resurs 01 Rocket 3.6 20:52:53 25° NW 20:52:53 25° NW 20:55:03 10° NNW
CZ-3C R/B 3.8 20:52:38 10° SW 21:44:49 - ESE 20:57:13 34° S
CZ-4C R/B 3.2 21:11:00 10° NW 21:17:10 63° WNW 21:17:10 63° WNW
